Location: Gro� Glienicke
(52.4675°N, 13.1079°E)
Time: 17:05:56
(UTC+00:00)

Okean 3 Rocket - Pass Details

Date: 06 July 2020
Orbit: 615 x 645 km, 82.5° (Epoch: 13 August)

Event Time Altitude Azimuth Distance (km) Brightness Sun altitude
Exits shadow 23:07:33 17° 221° (SW) 1,611 5.3 -15.0°
Maximum altitude 23:10:44 43° 287° (WNW) 883 4.5 -15.0°
Drops below altitude 10° 23:14:59 10° 360° (N) 2,007 7.6 -15.0°
Sets 23:17:19 0° 7° (N) 2,914 8.9 -15.0°
